Time,TemperatureF,DewpointF,PressureIn,WindDirection,WindDirectionDegrees,WindSpeedMPH,WindSpeedGustMPH,Humidity,HourlyPrecipIn,Conditions,Clouds,dailyrainin,SoftwareType,DateUTC
2014-01-01 00:04:00,74.8,66.7,30.19,East,90,5.0,-999.0,76,0.00,,,0.15,Wunderground v.1.15,2014-01-01 05:04:00,
2014-01-01 00:09:00,74.8,67.1,30.18,ESE,113,6.0,-999.0,77,0.00,,,0.15,Wunderground v.1.15,2014-01-01 05:09:00,
2014-01-01 00:14:00,74.8,67.1,30.18,ESE,113,6.0,-999.0,77,0.00,,,0.15,Wunderground v.1.15,2014-01-01 05:14:00,
2014-01-01 00:19:00,74.9,67.6,30.18,East,90,5.0,-999.0,78,0.00,,,0.15,Wunderground v.1.15,2014-01-01 05:19:00,
2014-01-01 00:24:00,74.9,67.6,30.18,East,90,4.0,-999.0,78,0.00,,,0.15,Wunderground v.1.15,2014-01-01 05:24:00,
2014-01-01 00:29:00,74.8,67.5,30.18,ESE,113,4.0,-999.0,78,0.00,,,0.15,Wunderground v.1.15,2014-01-01 05:29:00,
2014-01-01 00:34:00,74.8,67.5,30.18,East,90,5.0,-999.0,78,0.00,,,0.15,Wunderground v.1.15,2014-01-01 05:34:00,
2014-01-01 00:39:00,74.8,67.5,30.18,East,90,6.0,-999.0,78,0.00,,,0.15,Wunderground v.1.15,2014-01-01 05:39:00,
2014-01-01 00:44:00,74.8,67.5,30.18,East,90,5.0,-999.0,78,0.00,,,0.15,Wunderground v.1.15,2014-01-01 05:44:00,
2014-01-01 00:49:00,74.8,67.5,30.17,East,90,4.0,-999.0,78,0.00,,,0.15,Wunderground v.1.15,2014-01-01 05:49:00,
2014-01-01 00:54:00,74.8,67.5,30.18,East,90,4.0,-999.0,78,0.00,,,0.15,Wunderground v.1.15,2014-01-01 05:54:00,
2014-01-01 00:59:00,74.7,67.4,30.18,East,90,5.0,-999.0,78,0.00,,,0.15,Wunderground v.1.15,2014-01-01 05:59:00,
2014-01-01 01:04:00,74.8,67.8,30.18,East,90,5.0,-999.0,79,0.00,,,0.15,Wunderground v.1.15,2014-01-01 06:04:00,
2014-01-01 01:09:00,74.8,67.8,30.18,East,90,5.0,-999.0,79,0.00,,,0.15,Wunderground v.1.15,2014-01-01 06:09:00,
2014-01-01 01:14:00,74.9,67.9,30.17,ESE,113,4.0,-999.0,79,0.00,,,0.15,Wunderground v.1.15,2014-01-01 06:14:00,
2014-01-01 01:19:00,74.8,67.8,30.18,East,90,5.0,-999.0,79,0.00,,,0.15,Wunderground v.1.15,2014-01-01 06:19:00,
2014-01-01 01:24:00,74.7,67.8,30.17,East,90,4.0,-999.0,79,0.00,,,0.15,Wunderground v.1.15,2014-01-01 06:24:00,
2014-01-01 01:29:00,74.7,67.8,30.17,ESE,113,5.0,-999.0,79,0.00,,,0.15,Wunderground v.1.15,2014-01-01 06:29:00,
2014-01-01 01:34:00,74.8,67.8,30.17,East,90,5.0,-999.0,79,0.00,,,0.15,Wunderground v.1.15,2014-01-01 06:34:00,
2014-01-01 01:39:00,74.8,67.8,30.17,East,90,5.0,-999.0,79,0.00,,,0.15,Wunderground v.1.15,2014-01-01 06:39:00,
2014-01-01 01:44:00,74.8,68.2,30.17,East,90,5.0,-999.0,80,0.00,,,0.15,Wunderground v.1.15,2014-01-01 06:44:00,
2014-01-01 01:49:00,74.9,68.3,30.17,East,90,4.0,-999.0,80,0.00,,,0.15,Wunderground v.1.15,2014-01-01 06:49:00,
2014-01-01 01:54:00,74.9,68.3,30.16,East,90,5.0,-999.0,80,0.00,,,0.15,Wunderground v.1.15,2014-01-01 06:54:00,
2014-01-01 01:59:00,74.9,68.3,30.16,East,90,4.0,-999.0,80,0.00,,,0.15,Wunderground v.1.15,2014-01-01 06:59:00,
2014-01-01 02:04:00,74.9,68.3,30.16,East,90,4.0,-999.0,80,0.00,,,0.15,Wunderground v.1.15,2014-01-01 07:04:00,
2014-01-01 02:09:00,74.9,68.7,30.16,East,90,5.0,-999.0,81,0.00,,,0.15,Wunderground v.1.15,2014-01-01 07:09:00,
2014-01-01 02:14:00,75.0,68.8,30.16,East,90,4.0,-999.0,81,0.00,,,0.15,Wunderground v.1.15,2014-01-01 07:14:00,
2014-01-01 02:19:00,74.9,69.0,30.16,ESE,113,5.0,-999.0,82,0.00,,,0.15,Wunderground v.1.15,2014-01-01 07:19:00,
2014-01-01 02:24:00,74.6,69.1,30.16,East,90,5.0,-999.0,83,0.00,,,0.15,Wunderground v.1.15,2014-01-01 07:24:00,
2014-01-01 02:29:00,74.4,69.6,30.15,SE,135,4.0,-999.0,85,0.00,,,0.15,Wunderground v.1.15,2014-01-01 07:29:00,
2014-01-01 02:34:00,74.2,69.4,30.15,ESE,113,5.0,-999.0,85,0.00,,,0.15,Wunderground v.1.15,2014-01-01 07:34:00,
2014-01-01 02:39:00,74.4,69.6,30.15,East,90,5.0,-999.0,85,0.00,,,0.15,Wunderground v.1.15,2014-01-01 07:39:00,
2014-01-01 02:44:00,74.5,69.7,30.15,SE,135,4.0,-999.0,85,0.00,,,0.15,Wunderground v.1.15,2014-01-01 07:44:00,
2014-01-01 02:49:00,74.5,69.3,30.15,ESE,113,5.0,-999.0,84,0.00,,,0.15,Wunderground v.1.15,2014-01-01 07:49:00,
2014-01-01 02:54:00,74.6,69.4,30.15,ESE,113,4.0,-999.0,84,0.00,,,0.15,Wunderground v.1.15,2014-01-01 07:54:00,
2014-01-01 02:59:00,74.7,69.5,30.15,East,90,5.0,-999.0,84,0.00,,,0.15,Wunderground v.1.15,2014-01-01 07:59:00,
2014-01-01 03:04:00,74.8,69.6,30.15,East,90,4.0,-999.0,84,0.00,,,0.15,Wunderground v.1.15,2014-01-01 08:04:00,
2014-01-01 03:09:00,74.8,69.6,30.15,SE,135,5.0,-999.0,84,0.00,,,0.15,Wunderground v.1.15,2014-01-01 08:09:00,
2014-01-01 03:14:00,74.9,69.7,30.15,ESE,113,4.0,-999.0,84,0.00,,,0.15,Wunderground v.1.15,2014-01-01 08:14:00,
2014-01-01 03:19:00,74.9,69.7,30.15,ESE,113,4.0,-999.0,84,0.00,,,0.15,Wunderground v.1.15,2014-01-01 08:19:00,
2014-01-01 03:24:00,74.9,69.7,30.14,East,90,4.0,-999.0,84,0.00,,,0.15,Wunderground v.1.15,2014-01-01 08:24:00,
2014-01-01 03:29:00,74.9,69.7,30.14,East,90,4.0,-999.0,84,0.00,,,0.15,Wunderground v.1.15,2014-01-01 08:29:00,
2014-01-01 03:34:00,75.0,70.2,30.14,East,90,4.0,-999.0,85,0.00,,,0.15,Wunderground v.1.15,2014-01-01 08:34:00,
2014-01-01 03:39:00,75.1,69.9,30.14,East,90,4.0,-999.0,84,0.00,,,0.15,Wunderground v.1.15,2014-01-01 08:39:00,
2014-01-01 03:44:00,75.2,70.0,30.14,East,90,4.0,-999.0,84,0.00,,,0.15,Wunderground v.1.15,2014-01-01 08:44:00,
2014-01-01 03:49:00,75.2,69.7,30.14,East,90,4.0,-999.0,83,0.00,,,0.15,Wunderground v.1.15,2014-01-01 08:49:00,
2014-01-01 03:54:00,75.2,69.7,30.14,ESE,113,3.0,-999.0,83,0.00,,,0.15,Wunderground v.1.15,2014-01-01 08:54:00,
2014-01-01 03:59:00,75.2,69.7,30.14,East,90,4.0,-999.0,83,0.00,,,0.15,Wunderground v.1.15,2014-01-01 08:59:00,
2014-01-01 04:09:00,75.2,69.7,30.14,ESE,113,4.0,-999.0,83,0.00,,,0.15,Wunderground v.1.15,2014-01-01 09:09:00,
2014-01-01 04:14:00,75.3,69.8,30.14,East,90,4.0,-999.0,83,0.00,,,0.15,Wunderground v.1.15,2014-01-01 09:14:00,
2014-01-01 04:19:00,75.3,69.4,30.14,ESE,113,4.0,-999.0,82,0.00,,,0.15,Wunderground v.1.15,2014-01-01 09:19:00,
2014-01-01 04:24:00,75.5,69.6,30.14,East,90,3.0,-999.0,82,0.00,,,0.15,Wunderground v.1.15,2014-01-01 09:24:00,
2014-01-01 04:29:00,75.5,69.6,30.13,East,90,4.0,-999.0,82,0.00,,,0.15,Wunderground v.1.15,2014-01-01 09:29:00,
2014-01-01 04:34:00,75.4,69.5,30.13,ESE,113,4.0,-999.0,82,0.00,,,0.15,Wunderground v.1.15,2014-01-01 09:34:00,
2014-01-01 04:39:00,75.5,69.6,30.13,ESE,113,3.0,-999.0,82,0.00,,,0.15,Wunderground v.1.15,2014-01-01 09:39:00,
2014-01-01 04:44:00,75.5,69.6,30.13,SE,135,5.0,-999.0,82,0.00,,,0.15,Wunderground v.1.15,2014-01-01 09:44:00,
2014-01-01 04:49:00,75.6,69.7,30.13,ESE,113,4.0,-999.0,82,0.00,,,0.15,Wunderground v.1.15,2014-01-01 09:49:00,
2014-01-01 04:54:00,75.6,69.7,30.13,East,90,4.0,-999.0,82,0.00,,,0.15,Wunderground v.1.15,2014-01-01 09:54:00,
2014-01-01 04:59:00,75.6,69.7,30.13,East,90,4.0,-999.0,82,0.00,,,0.15,Wunderground v.1.15,2014-01-01 09:59:00,
2014-01-01 05:04:00,75.6,69.7,30.13,ESE,113,4.0,-999.0,82,0.00,,,0.15,Wunderground v.1.15,2014-01-01 10:04:00,
2014-01-01 05:09:00,75.6,69.7,30.13,SE,135,4.0,-999.0,82,0.00,,,0.15,Wunderground v.1.15,2014-01-01 10:09:00,
2014-01-01 05:14:00,75.6,69.7,30.13,East,90,4.0,-999.0,82,0.00,,,0.15,Wunderground v.1.15,2014-01-01 10:14:00,
2014-01-01 05:19:00,75.6,69.7,30.13,SE,135,4.0,-999.0,82,0.00,,,0.15,Wunderground v.1.15,2014-01-01 10:19:00,
2014-01-01 05:24:00,75.7,69.8,30.13,East,90,4.0,-999.0,82,0.00,,,0.15,Wunderground v.1.15,2014-01-01 10:24:00,
2014-01-01 05:29:00,75.7,70.2,30.13,East,90,3.0,-999.0,83,0.00,,,0.15,Wunderground v.1.15,2014-01-01 10:29:00,
2014-01-01 05:34:00,75.7,70.2,30.14,East,90,3.0,-999.0,83,0.00,,,0.15,Wunderground v.1.15,2014-01-01 10:34:00,
2014-01-01 05:39:00,75.6,70.1,30.14,East,90,4.0,-999.0,83,0.00,,,0.15,Wunderground v.1.15,2014-01-01 10:39:00,
2014-01-01 05:44:00,75.7,70.2,30.14,East,90,4.0,-999.0,83,0.00,,,0.15,Wunderground v.1.15,2014-01-01 10:44:00,
2014-01-01 05:49:00,75.7,70.2,30.14,East,90,3.0,-999.0,83,0.00,,,0.15,Wunderground v.1.15,2014-01-01 10:49:00,
2014-01-01 05:54:00,75.7,70.2,30.14,East,90,3.0,-999.0,83,0.00,,,0.15,Wunderground v.1.15,2014-01-01 10:54:00,
2014-01-01 05:59:00,75.7,70.2,30.14,East,90,3.0,-999.0,83,0.00,,,0.15,Wunderground v.1.15,2014-01-01 10:59:00,
2014-01-01 06:04:00,75.6,70.4,30.14,East,90,4.0,-999.0,84,0.00,,,0.15,Wunderground v.1.15,2014-01-01 11:04:00,
2014-01-01 06:09:00,75.6,70.4,30.14,East,90,3.0,-999.0,84,0.00,,,0.15,Wunderground v.1.15,2014-01-01 11:09:00,
2014-01-01 06:14:00,75.7,70.5,30.14,East,90,4.0,-999.0,84,0.00,,,0.15,Wunderground v.1.15,2014-01-01 11:14:00,
2014-01-01 06:19:00,75.7,70.5,30.14,East,90,3.0,-999.0,84,0.00,,,0.15,Wunderground v.1.15,2014-01-01 11:19:00,
2014-01-01 06:24:00,75.6,70.8,30.15,SE,135,4.0,-999.0,85,0.00,,,0.15,Wunderground v.1.15,2014-01-01 11:24:00,
2014-01-01 06:29:00,75.4,70.6,30.15,East,90,3.0,-999.0,85,0.00,,,0.15,Wunderground v.1.15,2014-01-01 11:29:00,
2014-01-01 06:34:00,75.3,70.8,30.15,SE,135,3.0,-999.0,86,0.00,,,0.15,Wunderground v.1.15,2014-01-01 11:34:00,
2014-01-01 06:39:00,75.3,70.8,30.15,East,90,3.0,-999.0,86,0.00,,,0.15,Wunderground v.1.15,2014-01-01 11:39:00,
2014-01-01 06:44:00,75.2,71.1,30.15,East,90,4.0,-999.0,87,0.00,,,0.15,Wunderground v.1.15,2014-01-01 11:44:00,
2014-01-01 06:49:00,75.2,70.7,30.15,ESE,113,2.0,-999.0,86,0.00,,,0.15,Wunderground v.1.15,2014-01-01 11:49:00,
2014-01-01 06:54:00,75.4,70.9,30.15,East,90,3.0,-999.0,86,0.01,,,0.15,Wunderground v.1.15,2014-01-01 11:54:00,
2014-01-01 06:59:00,75.3,71.2,30.16,ESE,113,2.0,-999.0,87,0.01,,,0.15,Wunderground v.1.15,2014-01-01 11:59:00,
2014-01-01 07:04:00,74.6,70.8,30.15,East,90,4.0,-999.0,88,0.03,,,0.15,Wunderground v.1.15,2014-01-01 12:04:00,
2014-01-01 07:09:00,74.1,70.6,30.15,East,90,3.0,-999.0,89,0.03,,,0.15,Wunderground v.1.15,2014-01-01 12:09:00,
2014-01-01 07:14:00,74.1,71.0,30.15,East,90,3.0,-999.0,90,0.03,,,0.15,Wunderground v.1.15,2014-01-01 12:14:00,
2014-01-01 07:19:00,74.1,71.0,30.15,East,90,3.0,-999.0,90,0.03,,,0.15,Wunderground v.1.15,2014-01-01 12:19:00,
2014-01-01 07:24:00,74.1,71.0,30.15,ESE,113,3.0,-999.0,90,0.03,,,0.15,Wunderground v.1.15,2014-01-01 12:24:00,
2014-01-01 07:29:00,74.2,71.1,30.16,East,90,2.0,-999.0,90,0.03,,,0.15,Wunderground v.1.15,2014-01-01 12:29:00,
2014-01-01 07:34:00,74.4,71.3,30.16,ESE,113,4.0,-999.0,90,0.03,,,0.15,Wunderground v.1.15,2014-01-01 12:34:00,
2014-01-01 07:39:00,74.6,71.1,30.16,East,90,3.0,-999.0,89,0.03,,,0.15,Wunderground v.1.15,2014-01-01 12:39:00,
2014-01-01 07:44:00,74.8,71.3,30.17,East,90,3.0,-999.0,89,0.03,,,0.15,Wunderground v.1.15,2014-01-01 12:44:00,
2014-01-01 07:49:00,74.9,71.1,30.17,ENE,68,3.0,-999.0,88,0.03,,,0.15,Wunderground v.1.15,2014-01-01 12:49:00,
2014-01-01 07:54:00,75.1,71.3,30.17,ESE,113,3.0,-999.0,88,0.02,,,0.15,Wunderground v.1.15,2014-01-01 12:54:00,
2014-01-01 07:59:00,75.2,71.4,30.17,ESE,113,3.0,-999.0,88,0.02,,,0.15,Wunderground v.1.15,2014-01-01 12:59:00,
2014-01-01 08:04:00,75.4,71.3,30.17,East,90,3.0,-999.0,87,0.00,,,0.15,Wunderground v.1.15,2014-01-01 13:04:00,
2014-01-01 08:09:00,75.6,71.5,30.17,East,90,4.0,-999.0,87,0.00,,,0.15,Wunderground v.1.15,2014-01-01 13:09:00,
2014-01-01 08:14:00,75.7,71.6,30.17,East,90,3.0,-999.0,87,0.00,,,0.15,Wunderground v.1.15,2014-01-01 13:14:00,
2014-01-01 08:19:00,75.7,71.6,30.17,ESE,113,3.0,-999.0,87,0.00,,,0.15,Wunderground v.1.15,2014-01-01 13:19:00,
2014-01-01 08:24:00,75.5,71.7,30.17,East,90,3.0,-999.0,88,0.01,,,0.15,Wunderground v.1.15,2014-01-01 13:24:00,
2014-01-01 08:29:00,75.4,71.6,30.17,East,90,2.0,-999.0,88,0.01,,,0.15,Wunderground v.1.15,2014-01-01 13:29:00,
2014-01-01 08:34:00,75.3,71.8,30.17,East,90,2.0,-999.0,89,0.01,,,0.15,Wunderground v.1.15,2014-01-01 13:34:00,
2014-01-01 08:39:00,75.1,71.6,30.17,SE,135,4.0,-999.0,89,0.01,,,0.15,Wunderground v.1.15,2014-01-01 13:39:00,
2014-01-01 08:44:00,75.3,71.8,30.17,ESE,113,2.0,-999.0,89,0.01,,,0.15,Wunderground v.1.15,2014-01-01 13:44:00,
2014-01-01 08:49:00,75.9,72.4,30.17,ESE,113,4.0,-999.0,89,0.01,,,0.15,Wunderground v.1.15,2014-01-01 13:49:00,
2014-01-01 08:54:00,76.5,72.7,30.18,East,90,3.0,-999.0,88,0.01,,,0.15,Wunderground v.1.15,2014-01-01 13:54:00,
2014-01-01 08:59:00,77.1,72.9,30.18,SE,135,3.0,-999.0,87,0.01,,,0.15,Wunderground v.1.15,2014-01-01 13:59:00,
2014-01-01 09:04:00,77.4,72.9,30.18,ESE,113,3.0,-999.0,86,0.01,,,0.15,Wunderground v.1.15,2014-01-01 14:04:00,
2014-01-01 09:09:00,77.6,73.1,30.18,East,90,3.0,-999.0,86,0.01,,,0.15,Wunderground v.1.15,2014-01-01 14:09:00,
2014-01-01 09:14:00,77.8,72.9,30.18,ESE,113,3.0,-999.0,85,0.01,,,0.15,Wunderground v.1.15,2014-01-01 14:14:00,
2014-01-01 09:19:00,77.8,72.9,30.18,ESE,113,3.0,-999.0,85,0.01,,,0.15,Wunderground v.1.15,2014-01-01 14:19:00,
2014-01-01 09:24:00,77.9,73.4,30.18,ESE,113,3.0,-999.0,86,0.00,,,0.15,Wunderground v.1.15,2014-01-01 14:24:00,
2014-01-01 09:29:00,77.6,72.7,30.18,East,90,3.0,-999.0,85,0.00,,,0.15,Wunderground v.1.15,2014-01-01 14:29:00,
2014-01-01 09:34:00,77.5,73.0,30.18,East,90,3.0,-999.0,86,0.00,,,0.15,Wunderground v.1.15,2014-01-01 14:34:00,
2014-01-01 09:39:00,77.6,73.1,30.18,ESE,113,3.0,-999.0,86,0.00,,,0.15,Wunderground v.1.15,2014-01-01 14:39:00,
2014-01-01 09:44:00,77.7,72.8,30.18,ESE,113,2.0,-999.0,85,0.00,,,0.15,Wunderground v.1.15,2014-01-01 14:44:00,
2014-01-01 09:49:00,77.9,73.4,30.18,SSE,158,2.0,-999.0,86,0.00,,,0.15,Wunderground v.1.15,2014-01-01 14:49:00,
2014-01-01 09:54:00,78.3,73.1,30.18,East,90,3.0,-999.0,84,0.00,,,0.15,Wunderground v.1.15,2014-01-01 14:54:00,
2014-01-01 09:59:00,78.3,72.7,30.18,SSE,158,3.0,-999.0,83,0.00,,,0.15,Wunderground v.1.15,2014-01-01 14:59:00,
2014-01-01 10:04:00,78.6,73.0,30.18,East,90,3.0,-999.0,83,0.00,,,0.15,Wunderground v.1.15,2014-01-01 15:04:00,
2014-01-01 10:09:00,78.7,73.1,30.18,East,90,3.0,-999.0,83,0.00,,,0.15,Wunderground v.1.15,2014-01-01 15:09:00,
2014-01-01 10:14:00,78.8,73.6,30.18,ESE,113,2.0,-999.0,84,0.00,,,0.15,Wunderground v.1.15,2014-01-01 15:14:00,
2014-01-01 10:19:00,79.2,73.2,30.18,ENE,68,3.0,-999.0,82,0.00,,,0.15,Wunderground v.1.15,2014-01-01 15:19:00,
2014-01-01 10:24:00,79.0,73.0,30.18,East,90,4.0,-999.0,82,0.00,,,0.15,Wunderground v.1.15,2014-01-01 15:24:00,
2014-01-01 10:29:00,79.2,72.9,30.18,SE,135,4.0,-999.0,81,0.00,,,0.15,Wunderground v.1.15,2014-01-01 15:29:00,
2014-01-01 10:34:00,78.9,72.9,30.18,East,90,2.0,-999.0,82,0.00,,,0.15,Wunderground v.1.15,2014-01-01 15:34:00,
2014-01-01 10:39:00,78.9,73.3,30.18,ENE,68,3.0,-999.0,83,0.00,,,0.15,Wunderground v.1.15,2014-01-01 15:39:00,
2014-01-01 10:44:00,78.9,72.9,30.18,East,90,3.0,-999.0,82,0.00,,,0.15,Wunderground v.1.15,2014-01-01 15:44:00,
2014-01-01 10:49:00,78.7,73.1,30.18,ESE,113,3.0,-999.0,83,0.00,,,0.15,Wunderground v.1.15,2014-01-01 15:49:00,
2014-01-01 10:54:00,79.2,73.6,30.18,East,90,3.0,-999.0,83,0.00,,,0.15,Wunderground v.1.15,2014-01-01 15:54:00,
2014-01-01 10:59:00,79.5,73.5,30.18,East,90,2.0,-999.0,82,0.00,,,0.15,Wunderground v.1.15,2014-01-01 15:59:00,
2014-01-01 11:04:00,79.5,73.2,30.18,East,90,3.0,-999.0,81,0.00,,,0.15,Wunderground v.1.15,2014-01-01 16:04:00,
2014-01-01 11:09:00,79.8,73.4,30.17,ENE,68,2.0,-999.0,81,0.00,,,0.15,Wunderground v.1.15,2014-01-01 16:09:00,
2014-01-01 11:14:00,79.5,73.2,30.17,SE,135,3.0,-999.0,81,0.00,,,0.15,Wunderground v.1.15,2014-01-01 16:14:00,
2014-01-01 11:19:00,79.6,73.6,30.17,East,90,2.0,-999.0,82,0.00,,,0.15,Wunderground v.1.15,2014-01-01 16:19:00,
2014-01-01 11:24:00,80.0,73.6,30.16,East,90,3.0,-999.0,81,0.00,,,0.15,Wunderground v.1.15,2014-01-01 16:24:00,
2014-01-01 11:29:00,80.3,73.9,30.16,SW,225,3.0,-999.0,81,0.00,,,0.15,Wunderground v.1.15,2014-01-01 16:29:00,
2014-01-01 11:34:00,80.2,73.5,30.16,ESE,113,3.0,-999.0,80,0.00,,,0.15,Wunderground v.1.15,2014-01-01 16:34:00,
2014-01-01 11:39:00,79.6,73.6,30.16,SE,135,2.0,-999.0,82,0.07,,,0.15,Wunderground v.1.15,2014-01-01 16:39:00,
2014-01-01 11:44:00,78.6,73.7,30.15,ENE,68,4.0,-999.0,85,0.11,,,0.15,Wunderground v.1.15,2014-01-01 16:44:00,
2014-01-01 11:49:00,78.3,74.1,30.15,East,90,4.0,-999.0,87,0.11,,,0.15,Wunderground v.1.15,2014-01-01 16:49:00,
2014-01-01 11:54:00,78.6,74.7,30.15,East,90,2.0,-999.0,88,0.11,,,0.15,Wunderground v.1.15,2014-01-01 16:54:00,
2014-01-01 11:59:00,78.4,74.2,30.15,ENE,68,3.0,-999.0,87,0.11,,,0.15,Wunderground v.1.15,2014-01-01 16:59:00,
2014-01-01 12:04:00,78.4,73.9,30.15,ENE,68,4.0,-999.0,86,0.11,,,0.15,Wunderground v.1.15,2014-01-01 17:04:00,
2014-01-01 12:09:00,78.8,73.9,30.14,South,180,4.0,-999.0,85,0.11,,,0.15,Wunderground v.1.15,2014-01-01 17:09:00,
2014-01-01 12:14:00,79.2,73.9,30.14,SSE,158,4.0,-999.0,84,0.11,,,0.15,Wunderground v.1.15,2014-01-01 17:14:00,
2014-01-01 12:19:00,79.2,73.9,30.14,East,90,3.0,-999.0,84,0.11,,,0.15,Wunderground v.1.15,2014-01-01 17:19:00,
2014-01-01 12:24:00,79.4,74.1,30.13,ENE,68,3.0,-999.0,84,0.11,,,0.15,Wunderground v.1.15,2014-01-01 17:24:00,
2014-01-01 12:29:00,80.0,75.1,30.13,South,180,2.0,-999.0,85,0.11,,,0.15,Wunderground v.1.15,2014-01-01 17:29:00,
2014-01-01 12:34:00,80.2,74.2,30.13,SE,135,4.0,-999.0,82,0.11,,,0.15,Wunderground v.1.15,2014-01-01 17:34:00,
2014-01-01 12:39:00,80.0,74.0,30.13,SSW,203,3.0,-999.0,82,0.04,,,0.15,Wunderground v.1.15,2014-01-01 17:39:00,
2014-01-01 12:44:00,80.1,74.1,30.12,SSE,158,3.0,-999.0,82,0.00,,,0.15,Wunderground v.1.15,2014-01-01 17:44:00,
2014-01-01 12:49:00,79.9,73.9,30.12,SSE,158,4.0,-999.0,82,0.00,,,0.15,Wunderground v.1.15,2014-01-01 17:49:00,
2014-01-01 12:54:00,79.9,73.9,30.12,East,90,3.0,-999.0,82,0.00,,,0.15,Wunderground v.1.15,2014-01-01 17:54:00,
2014-01-01 12:59:00,79.8,73.8,30.11,ENE,68,3.0,-999.0,82,0.00,,,0.15,Wunderground v.1.15,2014-01-01 17:59:00,
2014-01-01 13:04:00,79.7,73.7,30.11,ENE,68,3.0,-999.0,82,0.00,,,0.15,Wunderground v.1.15,2014-01-01 18:04:00,
2014-01-01 13:09:00,79.6,73.3,30.11,ENE,68,3.0,-999.0,81,0.00,,,0.15,Wunderground v.1.15,2014-01-01 18:09:00,
2014-01-01 13:14:00,79.6,73.6,30.11,East,90,2.0,-999.0,82,0.00,,,0.15,Wunderground v.1.15,2014-01-01 18:14:00,
2014-01-01 13:19:00,79.6,73.6,30.10,SSE,158,4.0,-999.0,82,0.00,,,0.15,Wunderground v.1.15,2014-01-01 18:19:00,
2014-01-01 13:24:00,80.0,74.0,30.10,South,180,2.0,-999.0,82,0.00,,,0.15,Wunderground v.1.15,2014-01-01 18:24:00,
2014-01-01 13:29:00,79.9,73.5,30.10,SSE,158,4.0,-999.0,81,0.00,,,0.15,Wunderground v.1.15,2014-01-01 18:29:00,
2014-01-01 13:34:00,79.8,73.4,30.10,SSE,158,4.0,-999.0,81,0.00,,,0.15,Wunderground v.1.15,2014-01-01 18:34:00,
2014-01-01 13:39:00,79.2,73.2,30.10,SSW,203,5.0,-999.0,82,0.00,,,0.15,Wunderground v.1.15,2014-01-01 18:39:00,
2014-01-01 13:44:00,78.4,71.7,30.09,SW,225,3.0,-999.0,80,0.00,,,0.15,Wunderground v.1.15,2014-01-01 18:44:00,
2014-01-01 13:49:00,77.4,70.0,30.09,SW,225,3.0,-999.0,78,0.00,,,0.15,Wunderground v.1.15,2014-01-01 18:49:00,
2014-01-01 13:54:00,77.2,70.2,30.09,SW,225,2.0,-999.0,79,0.00,,,0.15,Wunderground v.1.15,2014-01-01 18:54:00,
2014-01-01 13:59:00,77.0,70.4,30.09,SW,225,1.0,-999.0,80,0.00,,,0.15,Wunderground v.1.15,2014-01-01 18:59:00,
2014-01-01 14:04:00,77.0,70.4,30.08,SSW,203,1.0,-999.0,80,0.00,,,0.15,Wunderground v.1.15,2014-01-01 19:04:00,
2014-01-01 14:09:00,77.1,70.8,30.08,SSW,203,1.0,-999.0,81,0.00,,,0.15,Wunderground v.1.15,2014-01-01 19:09:00,
2014-01-01 14:14:00,77.9,72.7,30.08,South,180,4.0,-999.0,84,0.00,,,0.15,Wunderground v.1.15,2014-01-01 19:14:00,
2014-01-01 14:19:00,78.5,73.3,30.08,SSW,203,4.0,-999.0,84,0.00,,,0.15,Wunderground v.1.15,2014-01-01 19:19:00,
2014-01-01 14:24:00,78.8,73.2,30.08,SSW,203,6.0,-999.0,83,0.00,,,0.15,Wunderground v.1.15,2014-01-01 19:24:00,
2014-01-01 14:29:00,79.1,73.5,30.08,South,180,4.0,-999.0,83,0.00,,,0.15,Wunderground v.1.15,2014-01-01 19:29:00,
2014-01-01 14:34:00,79.5,73.2,30.08,SSW,203,5.0,-999.0,81,0.00,,,0.15,Wunderground v.1.15,2014-01-01 19:34:00,
2014-01-01 14:39:00,79.7,73.7,30.08,SE,135,3.0,-999.0,82,0.00,,,0.15,Wunderground v.1.15,2014-01-01 19:39:00,
2014-01-01 14:44:00,80.1,73.7,30.07,SSW,203,3.0,-999.0,81,0.00,,,0.15,Wunderground v.1.15,2014-01-01 19:44:00,
2014-01-01 14:49:00,80.1,73.7,30.07,SSE,158,4.0,-999.0,81,0.00,,,0.15,Wunderground v.1.15,2014-01-01 19:49:00,
2014-01-01 14:54:00,80.5,74.1,30.07,South,180,3.0,-999.0,81,0.00,,,0.15,Wunderground v.1.15,2014-01-01 19:54:00,
2014-01-01 14:59:00,80.7,74.0,30.07,SSW,203,3.0,-999.0,80,0.00,,,0.15,Wunderground v.1.15,2014-01-01 19:59:00,
2014-01-01 15:04:00,80.9,74.5,30.07,SSE,158,3.0,-999.0,81,0.00,,,0.15,Wunderground v.1.15,2014-01-01 20:04:00,
2014-01-01 15:09:00,80.2,73.1,30.07,SSW,203,7.0,-999.0,79,0.00,,,0.15,Wunderground v.1.15,2014-01-01 20:09:00,
2014-01-01 15:14:00,79.7,73.3,30.07,South,180,6.0,-999.0,81,0.00,,,0.15,Wunderground v.1.15,2014-01-01 20:14:00,
2014-01-01 15:19:00,79.7,73.3,30.07,SSE,158,5.0,-999.0,81,0.00,,,0.15,Wunderground v.1.15,2014-01-01 20:19:00,
2014-01-01 15:24:00,80.0,73.6,30.07,SSW,203,4.0,-999.0,81,0.00,,,0.15,Wunderground v.1.15,2014-01-01 20:24:00,
2014-01-01 15:29:00,80.5,74.1,30.07,SW,225,2.0,-999.0,81,0.00,,,0.15,Wunderground v.1.15,2014-01-01 20:29:00,
2014-01-01 15:34:00,80.6,73.9,30.07,SSW,203,5.0,-999.0,80,0.00,,,0.15,Wunderground v.1.15,2014-01-01 20:34:00,
2014-01-01 15:39:00,80.2,73.5,30.07,SSW,203,6.0,-999.0,80,0.00,,,0.15,Wunderground v.1.15,2014-01-01 20:39:00,
2014-01-01 15:44:00,80.1,73.7,30.07,South,180,4.0,-999.0,81,0.00,,,0.15,Wunderground v.1.15,2014-01-01 20:44:00,
2014-01-01 15:49:00,79.8,73.1,30.07,SSW,203,6.0,-999.0,80,0.00,,,0.15,Wunderground v.1.15,2014-01-01 20:49:00,
2014-01-01 15:54:00,79.4,73.1,30.07,South,180,5.0,-999.0,81,0.00,,,0.15,Wunderground v.1.15,2014-01-01 20:54:00,
2014-01-01 15:59:00,79.4,73.4,30.07,South,180,4.0,-999.0,82,0.00,,,0.15,Wunderground v.1.15,2014-01-01 20:59:00,
2014-01-01 16:04:00,79.4,73.4,30.07,SSW,203,5.0,-999.0,82,0.00,,,0.15,Wunderground v.1.15,2014-01-01 21:04:00,
2014-01-01 16:09:00,79.6,73.6,30.07,SSW,203,5.0,-999.0,82,0.00,,,0.15,Wunderground v.1.15,2014-01-01 21:09:00,
2014-01-01 16:14:00,79.7,73.7,30.07,SSW,203,4.0,-999.0,82,0.00,,,0.15,Wunderground v.1.15,2014-01-01 21:14:00,
2014-01-01 16:19:00,79.8,73.8,30.07,SSW,203,3.0,-999.0,82,0.00,,,0.15,Wunderground v.1.15,2014-01-01 21:19:00,
2014-01-01 16:24:00,79.7,73.3,30.07,SSE,158,4.0,-999.0,81,0.00,,,0.15,Wunderground v.1.15,2014-01-01 21:24:00,
2014-01-01 16:29:00,79.5,73.5,30.07,SSW,203,6.0,-999.0,82,0.00,,,0.15,Wunderground v.1.15,2014-01-01 21:29:00,
2014-01-01 16:34:00,79.3,73.3,30.07,SSW,203,5.0,-999.0,82,0.00,,,0.15,Wunderground v.1.15,2014-01-01 21:34:00,
2014-01-01 16:39:00,79.0,73.0,30.07,SSW,203,5.0,-999.0,82,0.00,,,0.15,Wunderground v.1.15,2014-01-01 21:39:00,
2014-01-01 16:44:00,79.2,73.2,30.07,SSW,203,4.0,-999.0,82,0.00,,,0.15,Wunderground v.1.15,2014-01-01 21:44:00,
2014-01-01 16:49:00,79.4,73.4,30.07,South,180,4.0,-999.0,82,0.00,,,0.15,Wunderground v.1.15,2014-01-01 21:49:00,
2014-01-01 16:54:00,79.5,73.5,30.07,South,180,4.0,-999.0,82,0.00,,,0.15,Wunderground v.1.15,2014-01-01 21:54:00,
2014-01-01 16:59:00,79.5,73.5,30.07,SW,225,2.0,-999.0,82,0.00,,,0.15,Wunderground v.1.15,2014-01-01 21:59:00,
2014-01-01 17:04:00,79.4,73.1,30.07,SSW,203,3.0,-999.0,81,0.00,,,0.15,Wunderground v.1.15,2014-01-01 22:04:00,
2014-01-01 17:09:00,79.3,73.0,30.07,SSW,203,3.0,-999.0,81,0.00,,,0.15,Wunderground v.1.15,2014-01-01 22:09:00,
2014-01-01 17:14:00,79.0,73.0,30.07,SSW,203,3.0,-999.0,82,0.00,,,0.15,Wunderground v.1.15,2014-01-01 22:14:00,
2014-01-01 17:19:00,78.8,73.2,30.07,SW,225,2.0,-999.0,83,0.00,,,0.15,Wunderground v.1.15,2014-01-01 22:19:00,
2014-01-01 17:24:00,78.7,73.1,30.07,SSW,203,3.0,-999.0,83,0.00,,,0.15,Wunderground v.1.15,2014-01-01 22:24:00,
2014-01-01 17:29:00,78.5,73.3,30.07,SSW,203,3.0,-999.0,84,0.00,,,0.15,Wunderground v.1.15,2014-01-01 22:29:00,
2014-01-01 17:34:00,78.2,73.0,30.07,SSW,203,4.0,-999.0,84,0.00,,,0.15,Wunderground v.1.15,2014-01-01 22:34:00,
2014-01-01 17:39:00,77.9,73.0,30.07,South,180,3.0,-999.0,85,0.00,,,0.15,Wunderground v.1.15,2014-01-01 22:39:00,
2014-01-01 17:44:00,77.8,72.9,30.07,South,180,3.0,-999.0,85,0.00,,,0.15,Wunderground v.1.15,2014-01-01 22:44:00,
2014-01-01 17:49:00,77.6,73.1,30.07,SSW,203,4.0,-999.0,86,0.00,,,0.15,Wunderground v.1.15,2014-01-01 22:49:00,
2014-01-01 17:54:00,77.5,73.0,30.07,SSW,203,4.0,-999.0,86,0.00,,,0.15,Wunderground v.1.15,2014-01-01 22:54:00,
2014-01-01 17:59:00,77.4,72.9,30.07,SSW,203,3.0,-999.0,86,0.00,,,0.15,Wunderground v.1.15,2014-01-01 22:59:00,
2014-01-01 18:04:00,77.5,73.0,30.07,SSE,158,2.0,-999.0,86,0.00,,,0.15,Wunderground v.1.15,2014-01-01 23:04:00,
2014-01-01 18:09:00,77.4,72.9,30.07,SSW,203,3.0,-999.0,86,0.00,,,0.15,Wunderground v.1.15,2014-01-01 23:09:00,
2014-01-01 18:14:00,77.4,72.9,30.07,SSW,203,4.0,-999.0,86,0.00,,,0.15,Wunderground v.1.15,2014-01-01 23:14:00,
2014-01-01 18:19:00,77.3,72.8,30.07,SSW,203,4.0,-999.0,86,0.00,,,0.15,Wunderground v.1.15,2014-01-01 23:19:00,
2014-01-01 18:24:00,77.2,72.7,30.07,South,180,3.0,-999.0,86,0.00,,,0.15,Wunderground v.1.15,2014-01-01 23:24:00,
2014-01-01 18:29:00,77.2,72.7,30.07,SSW,203,3.0,-999.0,86,0.00,,,0.15,Wunderground v.1.15,2014-01-01 23:29:00,
2014-01-01 18:34:00,77.3,72.8,30.07,SW,225,2.0,-999.0,86,0.00,,,0.15,Wunderground v.1.15,2014-01-01 23:34:00,
2014-01-01 18:39:00,77.2,72.7,30.07,SSW,203,2.0,-999.0,86,0.00,,,0.15,Wunderground v.1.15,2014-01-01 23:39:00,
2014-01-01 18:44:00,77.3,72.8,30.07,SSW,203,2.0,-999.0,86,0.00,,,0.15,Wunderground v.1.15,2014-01-01 23:44:00,
2014-01-01 18:49:00,77.2,72.7,30.07,SSW,203,2.0,-999.0,86,0.00,,,0.15,Wunderground v.1.15,2014-01-01 23:49:00,
2014-01-01 18:54:00,77.1,72.6,30.07,SSW,203,2.0,-999.0,86,0.00,,,0.15,Wunderground v.1.15,2014-01-01 23:54:00,
2014-01-01 18:59:00,77.2,72.7,30.08,SSW,203,2.0,-999.0,86,0.00,,,0.15,Wunderground v.1.15,2014-01-01 23:59:00,
2014-01-01 19:04:00,77.2,73.0,30.08,SSW,203,2.0,-999.0,87,0.00,,,0.15,Wunderground v.1.15,2014-01-02 00:04:00,
2014-01-01 19:09:00,77.2,73.0,30.08,SSW,203,2.0,-999.0,87,0.00,,,0.15,Wunderground v.1.15,2014-01-02 00:09:00,
2014-01-01 19:14:00,77.1,72.9,30.08,SSW,203,2.0,-999.0,87,0.00,,,0.15,Wunderground v.1.15,2014-01-02 00:14:00,
2014-01-01 19:19:00,77.2,73.0,30.08,SSW,203,3.0,-999.0,87,0.00,,,0.15,Wunderground v.1.15,2014-01-02 00:19:00,
2014-01-01 19:24:00,77.2,73.0,30.08,SSW,203,3.0,-999.0,87,0.00,,,0.15,Wunderground v.1.15,2014-01-02 00:24:00,
2014-01-01 19:29:00,77.2,73.0,30.08,SSW,203,2.0,-999.0,87,0.00,,,0.15,Wunderground v.1.15,2014-01-02 00:29:00,
2014-01-01 19:34:00,77.2,73.0,30.08,SSW,203,2.0,-999.0,87,0.00,,,0.15,Wunderground v.1.15,2014-01-02 00:34:00,
2014-01-01 19:39:00,77.2,73.0,30.08,SSW,203,2.0,-999.0,87,0.00,,,0.15,Wunderground v.1.15,2014-01-02 00:39:00,
2014-01-01 19:44:00,77.2,73.0,30.08,SSW,203,2.0,-999.0,87,0.00,,,0.15,Wunderground v.1.15,2014-01-02 00:44:00,
2014-01-01 19:49:00,77.2,73.4,30.08,SSW,203,3.0,-999.0,88,0.00,,,0.15,Wunderground v.1.15,2014-01-02 00:49:00,
2014-01-01 19:54:00,77.2,73.4,30.08,SSW,203,2.0,-999.0,88,0.00,,,0.15,Wunderground v.1.15,2014-01-02 00:54:00,
2014-01-01 19:59:00,77.0,73.2,30.08,SSW,203,2.0,-999.0,88,0.00,,,0.15,Wunderground v.1.15,2014-01-02 00:59:00,
2014-01-01 20:04:00,77.0,72.8,30.08,SSW,203,3.0,-999.0,87,0.00,,,0.15,Wunderground v.1.15,2014-01-02 01:04:00,
2014-01-01 20:09:00,77.0,72.8,30.08,SSW,203,3.0,-999.0,87,0.00,,,0.15,Wunderground v.1.15,2014-01-02 01:09:00,
2014-01-01 20:14:00,77.1,72.9,30.08,SSW,203,3.0,-999.0,87,0.00,,,0.15,Wunderground v.1.15,2014-01-02 01:14:00,
2014-01-01 20:19:00,77.1,73.3,30.08,SSW,203,3.0,-999.0,88,0.00,,,0.15,Wunderground v.1.15,2014-01-02 01:19:00,
2014-01-01 20:24:00,77.1,73.3,30.08,SSW,203,3.0,-999.0,88,0.00,,,0.15,Wunderground v.1.15,2014-01-02 01:24:00,
2014-01-01 20:29:00,77.0,73.2,30.08,SSW,203,3.0,-999.0,88,0.00,,,0.15,Wunderground v.1.15,2014-01-02 01:29:00,
2014-01-01 20:34:00,77.0,73.2,30.08,SSW,203,3.0,-999.0,88,0.00,,,0.15,Wunderground v.1.15,2014-01-02 01:34:00,
2014-01-01 20:39:00,77.1,72.9,30.08,SSW,203,3.0,-999.0,87,0.00,,,0.15,Wunderground v.1.15,2014-01-02 01:39:00,
2014-01-01 20:44:00,77.1,73.3,30.08,SSW,203,2.0,-999.0,88,0.00,,,0.15,Wunderground v.1.15,2014-01-02 01:44:00,
2014-01-01 20:49:00,77.1,73.3,30.08,South,180,2.0,-999.0,88,0.00,,,0.15,Wunderground v.1.15,2014-01-02 01:49:00,
2014-01-01 20:54:00,77.0,73.2,30.08,SW,225,2.0,-999.0,88,0.00,,,0.15,Wunderground v.1.15,2014-01-02 01:54:00,
2014-01-01 20:59:00,77.1,73.3,30.08,SSW,203,3.0,-999.0,88,0.00,,,0.15,Wunderground v.1.15,2014-01-02 01:59:00,
2014-01-01 21:04:00,77.0,73.2,30.08,SSW,203,3.0,-999.0,88,0.00,,,0.15,Wunderground v.1.15,2014-01-02 02:04:00,
2014-01-01 21:09:00,77.0,73.2,30.08,SSW,203,3.0,-999.0,88,0.00,,,0.15,Wunderground v.1.15,2014-01-02 02:09:00,
2014-01-01 21:14:00,77.0,73.2,30.08,SSW,203,4.0,-999.0,88,0.00,,,0.15,Wunderground v.1.15,2014-01-02 02:14:00,
2014-01-01 21:19:00,77.0,73.2,30.08,SSW,203,4.0,-999.0,88,0.00,,,0.15,Wunderground v.1.15,2014-01-02 02:19:00,
2014-01-01 21:24:00,77.0,73.2,30.07,SSW,203,4.0,-999.0,88,0.00,,,0.15,Wunderground v.1.15,2014-01-02 02:24:00,
2014-01-01 21:34:00,77.0,73.2,30.08,SSW,203,5.0,-999.0,88,0.00,,,0.15,Wunderground v.1.15,2014-01-02 02:34:00,
2014-01-01 21:39:00,77.0,73.2,30.07,SSW,203,3.0,-999.0,88,0.00,,,0.15,Wunderground v.1.15,2014-01-02 02:39:00,
2014-01-01 21:44:00,77.1,73.3,30.08,SSW,203,4.0,-999.0,88,0.00,,,0.15,Wunderground v.1.15,2014-01-02 02:44:00,
2014-01-01 21:49:00,77.2,73.4,30.07,SSW,203,5.0,-999.0,88,0.00,,,0.15,Wunderground v.1.15,2014-01-02 02:49:00,
2014-01-01 21:54:00,77.2,73.4,30.08,SSW,203,4.0,-999.0,88,0.00,,,0.15,Wunderground v.1.15,2014-01-02 02:54:00,
2014-01-01 21:59:00,77.2,73.4,30.08,South,180,4.0,-999.0,88,0.00,,,0.15,Wunderground v.1.15,2014-01-02 02:59:00,
2014-01-01 22:04:00,77.2,73.0,30.07,SSW,203,4.0,-999.0,87,0.00,,,0.15,Wunderground v.1.15,2014-01-02 03:04:00,
2014-01-01 22:09:00,77.1,72.9,30.07,SSW,203,3.0,-999.0,87,0.00,,,0.15,Wunderground v.1.15,2014-01-02 03:09:00,
2014-01-01 22:14:00,77.1,72.9,30.07,SSW,203,4.0,-999.0,87,0.00,,,0.15,Wunderground v.1.15,2014-01-02 03:14:00,
2014-01-01 22:19:00,77.1,72.9,30.07,SW,225,2.0,-999.0,87,0.00,,,0.15,Wunderground v.1.15,2014-01-02 03:19:00,
2014-01-01 22:24:00,77.2,73.4,30.07,SSW,203,3.0,-999.0,88,0.00,,,0.15,Wunderground v.1.15,2014-01-02 03:24:00,
2014-01-01 22:29:00,77.1,73.3,30.07,SW,225,2.0,-999.0,88,0.00,,,0.15,Wunderground v.1.15,2014-01-02 03:29:00,
2014-01-01 22:34:00,77.1,73.3,30.07,SSW,203,3.0,-999.0,88,0.00,,,0.15,Wunderground v.1.15,2014-01-02 03:34:00,
2014-01-01 22:39:00,77.1,73.3,30.07,SSW,203,3.0,-999.0,88,0.00,,,0.15,Wunderground v.1.15,2014-01-02 03:39:00,
2014-01-01 22:44:00,77.2,73.4,30.07,SSW,203,3.0,-999.0,88,0.00,,,0.15,Wunderground v.1.15,2014-01-02 03:44:00,
2014-01-01 22:49:00,77.1,73.3,30.07,SSW,203,3.0,-999.0,88,0.00,,,0.15,Wunderground v.1.15,2014-01-02 03:49:00,
2014-01-01 22:54:00,77.1,72.9,30.07,SSW,203,3.0,-999.0,87,0.00,,,0.15,Wunderground v.1.15,2014-01-02 03:54:00,
2014-01-01 22:59:00,77.1,72.9,30.06,SSW,203,3.0,-999.0,87,0.00,,,0.15,Wunderground v.1.15,2014-01-02 03:59:00,
2014-01-01 23:04:00,77.1,72.9,30.06,SSW,203,3.0,-999.0,87,0.00,,,0.15,Wunderground v.1.15,2014-01-02 04:04:00,
2014-01-01 23:09:00,77.2,73.4,30.06,SW,225,4.0,-999.0,88,0.00,,,0.15,Wunderground v.1.15,2014-01-02 04:09:00,
2014-01-01 23:14:00,77.2,73.0,30.06,SSW,203,4.0,-999.0,87,0.00,,,0.15,Wunderground v.1.15,2014-01-02 04:14:00,
2014-01-01 23:19:00,77.1,72.6,30.05,SSW,203,5.0,-999.0,86,0.00,,,0.15,Wunderground v.1.15,2014-01-02 04:19:00,
2014-01-01 23:24:00,77.2,72.7,30.05,SW,225,5.0,-999.0,86,0.00,,,0.15,Wunderground v.1.15,2014-01-02 04:24:00,
2014-01-01 23:29:00,77.2,72.7,30.05,SSW,203,4.0,-999.0,86,0.00,,,0.15,Wunderground v.1.15,2014-01-02 04:29:00,
2014-01-01 23:34:00,77.2,72.7,30.05,SW,225,4.0,-999.0,86,0.00,,,0.15,Wunderground v.1.15,2014-01-02 04:34:00,
2014-01-01 23:39:00,77.2,72.7,30.05,SSW,203,4.0,-999.0,86,0.00,,,0.15,Wunderground v.1.15,2014-01-02 04:39:00,
2014-01-01 23:44:00,77.1,72.6,30.05,SW,225,4.0,-999.0,86,0.00,,,0.15,Wunderground v.1.15,2014-01-02 04:44:00,
2014-01-01 23:49:00,77.2,72.7,30.05,SW,225,3.0,-999.0,86,0.00,,,0.15,Wunderground v.1.15,2014-01-02 04:49:00,
2014-01-01 23:54:00,77.2,72.7,30.05,SSW,203,3.0,-999.0,86,0.00,,,0.15,Wunderground v.1.15,2014-01-02 04:54:00,
2014-01-01 23:59:00,77.2,72.7,30.04,SSW,203,4.0,-999.0,86,0.00,,,0.15,Wunderground v.1.15,2014-01-02 04:59:00,